Theta_e
319 311 308 309 300 298 295 301 300 300 300 307 313 313 316 318 317 307 327 337 341 343 345 347 349 351 352 351 351 351 350 350 349 348 347 345 343 341 341 340 341 340 341 339 337 335 332 335 337
314 310 307 305 296 293 295 300 300 302 307 313 314 312 313 315 325 326 328 338 342 344 345 346 346 350 351 351 351 350 350 349 349 347 345 343 341 340 340 340 339 342 340 340 338 336 333 333 333
315 310 304 299 295 292 294 298 302 308 310 310 310 313 316 318 325 326 333 339 344 343 345 345 345 350 350 350 350 349 349 349 348 345 343 342 341 341 341 341 339 339 337 337 338 336 334 334 335
304 304 301 296 294 299 297 299 306 308 308 309 308 313 319 328 328 332 336 341 341 342 344 342 346 349 349 349 349 349 348 347 347 346 343 342 341 341 339 339 341 342 339 337 337 336 334 334 335
305 301 292 292 293 297 297 303 305 307 308 306 307 308 316 328 333 332 335 340 338 341 342 344 344 346 347 348 348 348 347 347 347 346 345 345 342 339 339 341 344 341 339 337 336 336 335 335 335
297 296 289 288 292 297 298 303 304 304 308 306 306 312 315 330 330 329 333 336 339 340 342 344 339 341 343 345 346 346 347 347 346 346 346 345 342 340 339 340 341 339 337 335 334 334 333 333 334
298 290 287 288 292 295 297 303 302 301 304 305 307 308 316 325 331 330 331 335 339 339 340 342 342 340 337 339 340 342 344 344 344 344 343 341 340 340 339 338 338 337 335 334 334 334 335 333 334
298 293 289 288 289 292 298 300 302 302 303 307 308 305 311 322 332 331 330 334 339 339 339 339 340 340 340 339 334 336 338 339 339 339 336 334 334 334 334 333 335 337 337 337 336 336 335 335 334
300 289 287 288 290 294 298 297 301 302 302 303 307 309 318 330 332 330 329 329 335 337 338 338 338 339 339 338 335 331 332 333 333 333 330 328 334 334 332 329 331 336 336 336 336 336 336 333 331
295 287 290 294 294 294 297 297 299 298 299 301 306 312 327 329 328 326 327 327 328 332 334 337 336 336 337 340 337 335 335 334 334 334 333 333 331 335 334 329 330 331 331 332 334 335 333 329 328
294 291 294 295 297 297 297 296 298 296 295 301 303 308 321 324 326 326 326 327 327 333 335 335 336 336 335 335 334 335 334 332 333 333 333 334 335 333 334 330 331 333 324 329 330 331 329 329 328
292 297 296 299 299 299 296 297 296 296 298 301 299 307 313 321 323 326 326 326 327 328 333 335 336 336 336 336 336 333 333 328 322 322 329 332 331 330 329 328 326 322 325 322 321 318 315 316 322
294 295 297 298 297 295 297 295 294 295 301 300 301 305 307 313 318 321 327 327 328 328 332 334 336 335 336 333 333 330 321 316 311 309 311 314 313 310 309 306 306 305 306 306 305 305 305 306 307
295 295 294 296 296 296 295 293 294 298 301 300 300 300 300 302 307 308 313 320 329 330 330 333 335 335 332 327 324 318 313 309 308 307 307 308 307 305 306 305 305 304 304 304 304 304 304 304 305
295 291 292 293 295 293 295 290 291 298 299 299 298 298 298 299 300 299 301 308 329 331 330 332 331 331 327 323 317 312 309 307 305 305 304 304 304 301 301 300 300 301 301 301 301 301 302 301 303
291 288 285 292 294 294 293 287 295 296 296 294 294 294 296 296 298 299 299 301 321 330 327 323 327 321 316 312 310 307 306 304 302 301 302 303 303 302 300 300 300 301 301 301 301 300 300 300 300
287 283 286 291 294 290 289 287 293 294 295 293 293 292 293 294 295 297 298 299 317 325 319 317 318 315 311 308 308 307 303 301 300 300 301 302 302 302 300 299 300 300 300 300 300 300 299 298 299
283 283 285 286 290 288 286 286 291 293 293 291 291 292 292 294 296 297 297 301 317 317 316 314 314 311 308 306 305 303 301 299 299 299 300 300 300 301 299 299 299 300 299 298 298 298 299 298 298
289 286 286 289 289 288 287 287 290 292 290 290 291 292 293 294 296 296 298 301 313 308 309 308 307 305 304 302 300 298 297 297 298 298 299 300 300 300 298 298 298 298 297 297 298 298 297 296 297
287 284 283 289 289 287 287 287 290 292 291 292 292 291 293 294 295 295 296 300 310 305 307 304 304 304 302 302 300 298 298 297 297 298 299 299 299 298 298 296 296 296 296 296 295 295 294 295 295
286 284 284 285 288 288 285 286 287 291 294 295 294 295 295 296 295 294 295 296 303 302 302 302 302 302 301 301 300 297 297 296 295 296 296 297 298 297 296 296 295 295 295 294 294 293 293 291 293
283 289 289 288 284 280 286 281 286 290 291 293 295 294 296 294 295 294 294 294 300 299 298 299 299 299 298 300 299 297 294 293 294 295 296 296 297 296 296 296 295 294 294 293 293 294 292 292 290
287 289 287 287 281 278 279 276 282 290 291 291 292 294 292 292 293 292 293 295 297 296 295 295 296 298 298 297 298 295 294 294 294 295 295 295 295 295 295 295 293 293 292 291 291 290 290 291 291
290 286 285 283 279 269 282 281 283 286 289 291 292 293 292 291 291 291 293 295 293 293 293 294 296 297 299 298 295 294 294 294 293 293 293 293 293 293 294 294 293 292 291 290 290 290 290 290 292
289 285 278 275 275 274 282 278 285 289 290 292 293 292 290 291 291 292 293 293 293 293 294 295 296 294 295 295 295 294 294 294 293 292 291 291 291 291 291 292 291 291 291 290 290 289 290 291 291
285 285 279 273 274 275 279 278 284 289 292 291 293 292 290 289 291 292 292 293 293 294 294 294 294 293 294 294 293 293 294 293 292 292 291 291 290 291 291 291 291 291 291 290 290 293 293 293 292
284 280 286 280 279 277 277 282 288 288 287 286 286 288 288 289 290 291 292 293 293 293 293 294 293 293 293 293 293 293 293 292 292 291 291 290 291 292 291 291 290 291 291 290 290 290 290 293 293
286 289 279 280 274 273 276 277 281 284 285 285 285 285 287 288 289 290 292 292 293 294 294 293 294 293 293 293 293 293 292 292 291 291 290 290 290 291 290 290 290 289 289 289 289 289 291 291 292
281 280 283 284 281 277 277 276 284 284 285 285 285 286 287 288 288 289 290 291 292 292 293 293 292 293 293 293 292 292 291 291 291 290 290 290 290 290 289 289 288 288 288 288 287 287 289 289 290
284 282 283 277 277 280 279 280 287 286 286 287 285 287 287 288 288 289 290 290 291 291 292 292 291 293 292 292 292 291 292 291 291 290 290 290 289 289 288 288 287 287 287 287 287 288 287 289 289
Wind_Speed
8 8 2 4 4 4 4 7 3 3 3 2 2 9 10 4 3 4 2 15 20 16 14 14 16 17 16 15 15 16 15 16 16 15 14 13 12 11 10 9 6 5 10 10 9 9 9 7 8
4 5 4 2 3 1 6 6 5 3 5 6 6 4 5 3 3 7 8 15 19 16 13 12 13 17 18 16 15 16 15 15 15 15 13 12 11 10 9 8 5 7 10 9 7 7 8 7 7
4 3 4 4 4 5 4 1 6 2 6 4 3 6 4 3 4 3 12 18 18 15 12 12 13 17 16 16 15 14 15 14 14 14 13 13 11 10 8 7 6 5 8 8 7 6 5 5 4
1 4 5 3 7 8 4 4 6 4 4 5 4 8 5 5 10 8 14 19 17 15 13 13 15 18 17 16 15 14 14 13 13 13 13 12 11 10 8 5 7 5 8 8 8 6 3 1 3
2 2 2 3 6 8 2 5 6 5 5 1 3 5 4 3 9 10 17 17 17 14 13 13 14 15 16 14 16 15 14 13 12 12 10 9 11 9 8 7 10 8 9 7 6 5 4 2 1
3 3 2 5 6 7 5 5 6 5 5 3 5 6 3 7 8 7 10 14 14 15 13 13 12 12 13 14 14 14 12 11 11 11 10 11 9 8 8 8 8 8 6 4 4 3 2 1 3
4 4 5 3 5 6 4 5 6 4 6 5 5 5 4 5 8 8 9 13 15 15 12 11 10 11 12 13 12 12 12 10 10 10 10 9 8 8 8 7 7 6 5 5 4 2 1 1 2
3 3 3 5 5 3 3 2 4 6 2 2 3 7 6 6 10 8 8 13 13 13 12 11 9 8 7 8 11 11 10 10 10 9 8 8 8 8 8 7 7 7 6 4 2 2 3 4 4
1 3 3 4 3 4 3 3 3 4 4 2 3 5 7 11 10 7 6 8 10 10 12 12 10 8 7 7 7 9 9 9 7 6 7 6 4 5 7 7 8 7 4 1 2 4 5 5 6
3 4 6 2 1 1 3 4 4 3 3 2 5 6 8 9 8 9 11 11 10 13 12 11 11 10 9 8 7 6 6 5 5 5 5 4 5 4 5 5 5 4 3 3 5 6 7 6 4
5 5 1 2 1 3 2 2 0 4 3 5 10 9 8 5 7 8 7 10 9 13 9 11 12 12 11 8 6 4 3 3 3 4 5 4 2 3 2 3 2 3 4 1 1 2 3 4 4
3 7 4 3 1 2 2 3 3 4 6 8 5 11 9 9 9 9 9 8 9 8 9 9 9 9 9 5 6 6 4 4 4 4 5 4 3 3 3 2 3 3 1 2 3 3 5 5 5
4 3 4 1 4 2 4 4 4 7 8 4 6 10 10 9 9 8 9 8 11 9 10 10 9 7 7 6 5 6 5 5 5 5 5 4 4 3 3 4 3 4 3 3 3 3 4 5 5
0 4 5 5 4 3 4 2 4 7 12 12 7 10 9 9 11 7 8 8 13 13 11 12 12 10 7 8 9 7 6 6 5 4 5 6 4 4 4 4 4 4 4 3 4 3 4 4 4
2 5 6 8 7 5 5 6 13 15 6 10 10 9 9 10 9 8 7 7 13 13 13 14 9 10 11 11 10 7 7 6 5 5 6 7 6 6 5 4 4 3 3 5 4 4 4 4 5
1 2 3 2 9 5 7 9 5 9 10 8 7 7 8 9 9 8 8 7 9 11 11 10 10 13 13 11 9 7 6 5 5 5 5 7 6 6 5 4 3 2 3 3 3 3 4 4 4
3 5 7 4 7 6 7 6 3 3 9 8 8 8 8 8 9 8 9 8 8 10 13 14 13 13 13 11 9 9 9 5 5 5 5 6 6 6 5 4 3 3 3 3 3 2 2 3 4
8 7 5 6 7 3 5 12 9 4 5 9 9 9 9 9 11 9 9 8 9 10 10 16 11 13 12 8 9 5 8 5 4 5 5 6 5 6 5 4 4 4 3 4 3 3 2 2 4
6 5 5 2 3 4 9 9 12 9 7 9 9 9 10 11 9 9 9 8 9 9 12 14 15 12 11 9 8 5 7 5 4 5 7 6 5 5 5 4 4 4 4 3 4 2 4 3 4
12 9 9 6 4 4 5 12 10 9 9 14 14 12 13 7 8 8 9 7 12 11 11 11 14 16 11 8 5 4 8 3 4 4 5 6 6 5 5 4 4 5 3 5 4 4 3 2 4
10 15 5 8 3 4 3 13 8 10 17 13 15 13 15 16 13 8 9 9 10 13 13 14 13 13 11 11 8 5 6 4 3 3 4 4 6 6 5 5 4 4 3 3 3 4 5 3 3
13 6 8 7 4 6 2 13 6 7 11 11 18 14 16 11 10 11 9 8 10 9 9 12 11 11 9 12 12 14 6 5 4 4 4 5 6 6 5 5 5 5 4 5 4 5 3 3 3
9 3 4 6 5 5 4 2 7 9 16 10 11 15 11 10 14 13 11 10 8 10 10 9 11 10 11 9 11 7 7 5 4 4 7 6 4 5 5 5 4 4 4 4 5 4 4 3 2
5 5 6 4 4 0 14 10 12 9 8 7 6 12 15 12 9 8 8 9 8 8 11 11 12 7 9 9 9 10 13 9 7 5 5 4 3 3 5 5 4 3 4 3 3 3 4 4 3
4 5 2 3 3 10 8 7 24 5 6 7 10 10 10 10 11 12 11 11 12 13 12 11 13 8 8 9 8 9 9 9 9 7 5 6 3 2 3 3 2 2 2 3 3 2 1 1 2
12 11 7 8 7 6 1 11 15 4 12 8 9 7 10 10 10 12 13 13 13 12 11 11 11 9 8 8 8 7 8 6 5 6 5 4 4 4 4 3 3 2 1 2 4 2 2 2 3
2 8 6 5 1 1 5 7 10 6 5 0 4 7 10 9 9 11 11 12 12 11 10 12 10 7 8 8 8 7 7 8 7 7 6 4 5 4 4 4 3 3 4 3 2 2 2 2 2
8 5 2 3 5 7 5 5 7 6 6 2 5 7 7 7 8 11 12 12 9 10 9 9 9 10 8 8 7 7 7 7 7 6 7 6 5 4 5 5 5 4 3 3 3 3 3 3 1
4 4 5 5 4 3 2 5 4 6 7 7 7 6 8 8 8 8 8 8 8 8 10 10 10 10 10 9 7 8 7 7 7 6 6 6 5 5 5 4 3 3 1 1 1 3 3 3 4
4 10 11 4 3 3 3 3 5 6 8 2 4 7 6 8 8 8 9 9 9 9 9 11 8 10 9 8 8 8 7 7 6 6 6 6 6 5 5 4 3 2 2 1 1 2 3 3 4
Wind_Direction
317 300 269 33 55 75 252 260 239 106 62 103 60 85 119 75 59 166 26 123 131 141 146 147 146 142 135 132 132 137 139 140 133 129 122 120 118 116 114 109 104 124 115 99 91 78 73 93 95
314 310 39 77 104 183 267 240 185 121 141 102 55 78 50 91 84 140 102 137 135 138 145 148 145 143 138 137 135 138 140 137 132 128 127 124 122 120 120 113 96 90 104 92 104 88 77 70 74
289 206 94 143 178 200 222 17 114 116 82 88 80 62 78 90 95 115 125 136 130 137 144 147 143 144 140 140 139 138 137 134 131 136 136 133 130 129 126 128 132 118 112 96 111 109 97 79 64
284 21 7 132 231 261 228 97 135 109 40 65 99 78 52 323 147 152 133 135 133 144 144 149 148 147 149 150 147 141 133 137 141 142 143 143 141 139 138 136 158 141 116 107 100 116 113 55 8
9 65 119 227 244 263 322 152 123 127 137 161 95 145 92 39 111 134 136 139 142 141 145 151 150 153 153 155 148 142 143 149 150 152 154 151 141 140 133 114 137 133 124 122 115 114 106 92 344
11 103 107 223 250 256 207 169 114 142 169 220 103 109 161 147 122 149 130 138 134 141 147 150 151 150 146 142 143 146 151 159 162 157 146 149 146 142 132 119 116 126 132 126 111 103 90 357 315
140 102 216 234 244 261 192 155 128 164 156 175 151 101 174 149 161 146 137 120 135 140 141 145 153 156 150 149 151 154 157 165 161 159 153 150 145 143 143 140 142 144 147 150 146 148 182 284 292
128 118 259 230 232 260 308 78 108 67 140 281 102 159 182 200 158 145 132 125 136 142 145 150 148 156 157 159 160 161 167 170 168 163 151 148 153 154 158 167 174 172 177 187 204 253 286 297 305
64 62 246 254 246 169 272 96 13 162 106 35 31 137 172 148 141 130 127 129 139 147 152 158 156 158 162 161 170 166 166 163 159 155 162 156 165 175 181 186 194 192 188 221 267 279 284 289 287
118 147 227 219 1 42 112 94 178 122 156 131 60 42 113 135 148 155 157 164 146 161 164 162 160 168 164 171 165 170 163 156 165 169 177 190 191 198 193 175 158 173 186 259 266 278 283 282 266
205 208 232 351 134 60 43 57 304 139 214 207 175 169 155 150 159 164 172 170 168 159 165 169 166 173 171 174 165 165 151 153 167 186 197 207 178 174 131 138 169 163 182 227 291 299 306 284 261
230 236 242 256 44 43 83 329 328 192 208 157 120 185 159 166 179 181 188 177 163 151 141 153 159 162 176 157 161 157 148 121 111 98 99 115 115 116 104 79 54 48 72 23 5 355 338 341 331
218 266 293 135 165 228 327 245 237 256 252 217 141 136 174 177 187 193 195 176 168 159 154 161 169 168 186 133 124 117 118 116 121 105 91 97 84 85 92 74 71 69 57 50 20 1 344 336 333
312 309 277 279 232 245 210 253 116 259 227 242 169 162 177 192 201 200 198 181 177 171 169 163 175 185 137 129 125 125 117 120 110 108 101 98 108 99 80 71 55 48 39 16 8 351 340 330 333
343 315 294 229 203 225 149 276 228 234 210 219 204 195 208 209 207 211 219 181 179 181 169 173 165 137 132 131 127 125 126 123 117 112 98 90 82 79 90 79 65 38 20 18 4 349 350 350 338
242 227 286 242 161 201 143 264 233 231 193 217 215 200 199 208 216 223 218 222 174 171 154 136 134 129 128 131 124 125 121 114 112 106 96 90 84 86 82 83 70 39 27 17 5 355 349 352 342
259 239 215 277 180 134 177 257 242 136 179 202 219 220 213 221 225 220 223 216 165 144 146 130 135 138 132 130 122 129 113 110 110 102 101 100 89 79 85 81 66 49 31 17 10 1 30 342 322
206 227 251 207 215 178 183 254 267 278 197 221 230 225 213 211 222 211 210 196 153 143 157 134 138 134 128 125 108 115 114 101 110 111 102 96 85 77 79 71 58 53 48 22 6 358 343 333 309
204 215 230 269 246 162 225 249 253 253 218 236 233 221 211 212 217 201 198 169 144 139 143 145 139 141 136 140 130 134 130 127 102 96 105 97 87 75 76 65 56 45 54 20 6 352 360 336 344
245 255 255 271 191 185 263 256 248 247 229 217 219 222 221 202 202 182 188 161 160 155 153 146 150 151 146 146 147 144 131 116 123 113 100 101 93 83 89 80 62 53 48 35 27 35 355 338 18
229 230 212 223 201 251 356 273 240 241 236 229 219 216 215 207 191 182 165 163 153 156 158 152 152 150 156 136 116 101 84 83 97 111 108 110 106 97 89 76 70 55 60 46 39 43 42 356 338
254 199 187 206 120 237 169 273 249 228 236 220 225 211 218 193 178 178 168 164 159 164 148 144 144 140 139 146 147 149 142 146 161 142 133 119 109 101 96 88 77 71 63 57 32 35 28 25 355
246 197 204 199 161 81 237 346 258 226 237 229 222 217 201 188 177 178 172 160 155 147 143 132 125 132 142 141 142 133 119 120 118 117 118 121 115 115 109 98 91 88 80 74 60 39 25 14 348
84 27 28 59 104 346 227 180 256 208 209 237 211 214 199 184 171 154 153 134 125 127 128 130 125 119 129 133 126 131 135 136 129 129 122 126 121 108 105 96 98 111 121 108 101 75 32 11 350
103 102 234 236 228 233 169 178 249 256 265 231 227 222 183 165 156 155 149 141 141 141 138 131 129 128 123 125 125 130 130 130 132 136 135 132 125 111 108 99 89 100 146 140 130 106 112 349 318
195 187 199 216 195 230 58 208 244 235 246 244 232 195 144 150 154 152 147 146 148 141 135 128 130 129 127 123 124 121 120 125 123 130 131 128 129 138 141 117 104 82 104 176 194 205 234 266 255
214 236 288 323 174 238 223 276 294 235 249 112 140 135 149 148 140 137 138 144 142 141 140 141 135 131 132 131 127 123 124 125 130 127 123 126 127 131 122 113 91 57 43 31 343 316 334 31 348
219 327 275 200 228 238 238 260 246 334 282 280 176 157 138 132 136 142 146 144 144 143 137 132 138 146 146 136 134 135 132 131 131 126 129 128 125 111 102 89 82 73 54 32 17 6 358 345 317
152 245 240 284 249 260 221 260 242 298 308 238 206 174 154 149 146 136 136 138 138 132 142 145 146 148 149 146 140 137 139 132 126 126 129 130 115 113 114 123 127 129 136 104 62 349 322 334 318
276 220 208 233 238 241 323 261 339 0 350 310 208 162 149 147 147 143 144 141 146 147 148 156 153 154 156 145 141 141 135 133 130 133 130 119 129 138 145 143 139 143 127 100 36 24 322 320 313